Tracking 17694 objects as of 26-May-2016
HD Live streaming from Space Station
objects crossing your sky now

IRIDIUM 54

Track IRIDIUM 54 now!
10-day predictions
IRIDIUM 54 is classified as:


NORAD ID: 25171
Int'l Code: 1998-010C
Perigee: 783.2 km
Apogee: 786.4 km
Inclination: 86.4 °
Period: 100.4 minutes
Semi major axis: 7155 km
RCS: 3.5028 m2 (large)
Launch date: February 18, 1998
Source: United States (US)
Launch site: AIR FORCE WESTERN TEST RANGE (AFWTR)
Your satellite tracking list
Your tracking list is empty





NASA's NSSDC Master Catalog

Two Line Element Set (TLE):
1 25171U 98010C   16147.43066194  .00000005  00000-0 -52656-5 0  9991
2 25171  86.3961 152.0816 0002258  83.9705 276.1748 14.34217711956492
Source of the keplerian elements: AFSPC

N2YO: 655